Location: Luz Observatory
(34.5000°N, 117.2833°W)
Time: 01:57:46
(UTC-07:00)

Cosmos 1484 Rocket - Visible Passes

Search period start: 25 July 2014 00:00
Search period end: 04 August 2014 00:00
Orbit: 515 x 575 km, 97.4° (Epoch: 23 July)

Date Brightness Start Highest point End Pass type
(mag) Time Alt. Az. Time Alt. Az. Time Alt. Az.
25 Jul 4.8 20:56:50 10° SSW 21:00:24 30° W 21:03:56 10° NW visible
26 Jul 4.5 20:50:56 10° SSW 20:54:38 35° W 20:58:19 10° NNW visible
27 Jul 4.1 20:45:04 10° S 20:48:53 41° W 20:52:41 10° NNW visible
28 Jul 3.8 20:39:14 10° S 20:43:08 49° W 20:47:01 10° NNW visible
29 Jul 3.5 20:33:26 10° S 20:37:24 59° W 20:41:19 10° NNW visible
30 Jul 3.2 20:27:39 10° S 20:31:39 71° W 20:35:36 10° NNW visible
31 Jul 2.9 20:21:54 10° S 20:25:55 84° WSW 20:29:52 10° NNW visible
01 Aug 2.8 20:16:11 10° SSE 20:20:10 82° ENE 20:24:07 10° N visible
02 Aug 2.8 20:10:29 10° SSE 20:14:26 68° ENE 20:18:21 10° N visible
